Location: Appeville
(49.3218°N, 1.3427°W)
Time: 23:36:29
(UTC+00:00)

CZ-4C R/B - Pass Details

Date: 08 December 2019
Orbit: 646 x 1356 km, 63.4° (Epoch: 24 January)

Event Time Altitude Azimuth Distance (km) Brightness Sun altitude
Exits shadow 04:26:59 80° 320° (NW) 1,217 2.7 -31.5°
Maximum altitude 04:27:30 90° 34° (NE) 1,209 2.8 -31.4°
Drops below altitude 10° 04:35:41 10° 140° (SE) 3,330 5.7 -30.1°
Sets 04:38:40 0° 141° (SE) 4,341 6.4 -29.6°
